User: anonymous   Login
Location: Unspecified
(0.0000°N, 0.0000°E)
Time: 09:07:26
(UTC+00:00)
Language:

Mayak - Orbit

View from above orbital plane
View from above orbital plane
View from above satellite
View from above satellite

Ground track
Ground track

The orbit data is extracted from the following two-line orbital elements,

1 42830U 17042F   18048.79575539  .00000733  00000-0  79289-4 0  9994
2 42830  97.6074 315.6619 0013081 231.2787 128.7263 14.91115796 32543
Epoch (UTC): 17 February 2018 19:05:53
Eccentricity: 0.0013081
inclination: 97.6074°
perigee height: 585 km
apogee height: 603 km
right ascension of ascending node: 315.6619°
argument of perigee: 231.2787°
revolutions per day: 14.91115796
mean anomaly at epoch: 128.7263°
orbit number at epoch: 3254

The dashed part of the orbit path shows where the satellite is in the earth's shadow,  

DLR